Weather History for Ft Pierce, FL

Change the Weather History Date:

Sunday, September 1, 2013

  Actual Average Record
Temperature  
Mean Temperature 80 °F -  
Max Temperature 90 °F 89 °F 95 °F (1987)
Min Temperature 71 °F 72 °F 33 °F (1998)
Cooling Degree Days 15    
Growing Degree Days 30 (Base 50)    
Moisture  
Dew Point 71 °F    
Average Humidity 79    
Maximum Humidity 93    
Minimum Humidity 53    
Precipitation  
Precipitation 0.06 in - - ()
Sea Level Pressure  
Sea Level Pressure 29.98 in    
Wind  
Wind Speed 3 mph (SSW)    
Max Wind Speed 15 mph    
Max Gust Speed -    
Visibility 9 miles    
Events Rain , Thunderstorm    
Averages and records for this station are not official NWS values.
T = Trace of Precipitation, MM = Missing Value Source: NWS Daily Summary

Daily Weather History Graph

Daily Weather History Graph

Search for Another Location

Airport:

Trip Planner

Search our weather history database for the weather conditions in past years. The results will help you decide how hot, cold, wet, or windy it might be!

Date:

Astronomy

Sep. 01, 2013 Rise Set
Actual Time 7:00 AM EDT 7:41 PM EDT
Civil Twilight 6:36 AM EDT 8:05 PM EDT
Nautical Twilight 6:08 AM EDT 8:33 PM EDT
Astronomical Twilight 5:40 AM EDT 9:01 PM EDT
Moon 3:33 AM EDT (9/1) 5:07 PM EDT (9/1)
Length of Visible Light 13h 28m
Length of Day
12h 41m
Waning Crescent, 14% of the Moon is Illuminated
Sep 1
Waning Crescent
Sep 5
New
Sep 12
First Quarter
Sep 19
Full
Sep 26
Last Quarter

Hourly Weather History & Observations

Time (EDT) Temp. Heat Index Dew Point Humidity Pressure Visibility Wind Dir Wind Speed Gust Speed Precip Events Conditions
12:53 AM 75.0 °F - 69.1 °F 82% 29.98 in 10.0 mi Calm Calm - N/A   Clear
1:53 AM 73.9 °F - 70.0 °F 87% 29.97 in 10.0 mi Calm Calm - N/A   Clear
2:53 AM 73.0 °F - 70.0 °F 90% 29.96 in 10.0 mi Calm Calm - N/A   Clear
3:53 AM 72.0 °F - 69.1 °F 91% 29.95 in 10.0 mi Calm Calm - N/A   Clear
4:53 AM 72.0 °F - 70.0 °F 93% 29.96 in 10.0 mi Calm Calm - N/A   Clear
5:53 AM 71.1 °F - 69.1 °F 93% 29.97 in 10.0 mi Calm Calm - N/A   Clear
6:53 AM 71.1 °F - 69.1 °F 93% 29.98 in 10.0 mi Calm Calm - N/A   Clear
7:53 AM 73.9 °F - 71.1 °F 91% 29.98 in 10.0 mi Calm Calm - N/A   Clear
8:53 AM 81.0 °F 86.7 °F 75.0 °F 82% 29.99 in 10.0 mi Calm Calm - N/A   Clear
9:53 AM 84.9 °F 91.4 °F 73.0 °F 67% 30.00 in 10.0 mi WSW 6.9 mph - N/A   Clear
10:53 AM 86.0 °F 91.5 °F 71.1 °F 61% 30.00 in 10.0 mi Calm Calm - N/A   Scattered Clouds
11:53 AM 89.1 °F 94.1 °F 70.0 °F 53% 30.00 in 10.0 mi Variable 4.6 mph - N/A   Scattered Clouds
12:53 PM 87.1 °F 95.4 °F 73.9 °F 65% 30.00 in 10.0 mi ESE 12.7 mph - N/A   Mostly Cloudy
1:53 PM 88.0 °F 96.5 °F 73.9 °F 63% 29.99 in 10.0 mi SE 12.7 mph - N/A   Partly Cloudy
2:53 PM 89.1 °F 97.0 °F 73.0 °F 59% 29.96 in 10.0 mi SE 15.0 mph - N/A   Partly Cloudy
3:17 PM 87.8 °F 93.8 °F 71.6 °F 58% 29.95 in 10.0 mi SE 12.7 mph - N/A Thunderstorm Thunderstorm
3:53 PM 89.1 °F 96.0 °F 72.0 °F 57% 29.94 in 10.0 mi East 12.7 mph - N/A Thunderstorm Scattered Clouds
4:48 PM 82.4 °F 87.2 °F 71.6 °F 70% 29.97 in 10.0 mi WSW 9.2 mph - 0.00 in Rain , Thunderstorm Light Thunderstorms and Rain
4:53 PM 79.0 °F - 71.1 °F 77% 29.96 in 9.0 mi Calm Calm - 0.00 in Rain , Thunderstorm Light Thunderstorms and Rain
5:09 PM 78.8 °F - 71.6 °F 78% 29.98 in 0.8 mi SW 6.9 mph - 0.00 in Rain , Thunderstorm Light Thunderstorms and Rain
5:12 PM 78.8 °F - 71.6 °F 78% 29.98 in 3.0 mi WSW 10.4 mph - 0.01 in Rain , Thunderstorm Thunderstorms and Rain
5:53 PM 73.9 °F - 71.1 °F 91% 29.98 in 8.0 mi SW 6.9 mph - 0.05 in Rain , Thunderstorm Light Thunderstorms and Rain
6:53 PM 75.0 °F - 71.1 °F 87% 29.96 in 7.0 mi SW 4.6 mph - 0.01 in   Partly Cloudy
7:53 PM 75.0 °F - 71.1 °F 87% 29.96 in 10.0 mi Calm Calm - 0.00 in   Clear
8:53 PM 73.9 °F - 71.1 °F 91% 29.98 in 10.0 mi WNW 4.6 mph - N/A   Clear
9:53 PM 73.0 °F - 70.0 °F 90% 30.00 in 10.0 mi Calm Calm - N/A   Clear
10:53 PM 73.0 °F - 70.0 °F 90% 30.02 in 10.0 mi Calm Calm - N/A   Clear
11:53 PM 73.0 °F - 71.1 °F 93% 30.01 in 10.0 mi Calm Calm - N/A   Clear